Location: Newark
(23.3970°S, 47.6010°W)
Time: 10:18:18
(UTC+00:00)

deb Explorer IX - Pass Details

Date: 19 February 2020
Orbit: 547 x 1101 km, 38.8° (Epoch: 28 March)

Event Time Altitude Azimuth Distance (km) Brightness Sun altitude
Rises 22:32:48 0° 359° (N) 3,424 ? -10.8°
Reaches altitude 10° 22:37:29 10° 32° (NNE) 2,646 ? -11.9°
Enters shadow 22:38:42 11° 43° (NE) 2,603 ? -12.1°
Maximum altitude 22:39:18 11° 48° (NE) 2,611 - -12.3°
Drops below altitude 10° 22:41:10 10° 65° (ENE) 2,753 - -12.7°
Sets 22:46:22 0° 96° (E) 3,826 - -13.8°
